Weather History for Altus, OK

Change the Weather History Date:

Friday, April 26, 2013

  Actual Average (KLTS) Record (KLTS)
Temperature  
Mean Temperature 71 °F -  
Max Temperature 83 °F 74 °F 93 °F (2014)
Min Temperature 58 °F 50 °F 40 °F (2008)
Cooling Degree Days 6    
Growing Degree Days 21 (Base 50)    
Moisture  
Dew Point 50 °F    
Average Humidity 55    
Maximum Humidity 82    
Minimum Humidity 37    
Precipitation  
Precipitation 0.00 in - - ()
Sea Level Pressure  
Sea Level Pressure 30.02 in    
Wind  
Wind Speed 16 mph (SE)    
Max Wind Speed 24 mph    
Max Gust Speed 31 mph    
Visibility 10 miles    
Events Rain , Thunderstorm    
Averages and records for this station are not official NWS values.
T = Trace of Precipitation, MM = Missing Value Source: NWS Daily Summary

Daily Weather History Graph

Daily Weather History Graph

Search for Another Location

Airport:

Trip Planner

Search our weather history database for the weather conditions in past years. The results will help you decide how hot, cold, wet, or windy it might be!

Date:

Astronomy

Apr. 26, 2013 Rise Set
Actual Time 6:52 AM CDT 8:18 PM CDT
Civil Twilight 6:25 AM CDT 8:45 PM CDT
Nautical Twilight 5:53 AM CDT 9:17 PM CDT
Astronomical Twilight 5:20 AM CDT 9:50 PM CDT
Moon 9:39 PM CDT (4/26) 7:23 AM CDT (4/26)
Length of Visible Light 14h 19m
Length of Day
13h 26m
Full, 99% of the Moon is Illuminated
Apr 26
Full
May 2
Last Quarter
May 9
New
May 17
First Quarter
May 24
Full

Hourly Weather History & Observations

Time (CDT) Temp. Heat Index Dew Point Humidity Pressure Visibility Wind Dir Wind Speed Gust Speed Precip Events Conditions
12:35 AM 61.7 °F - 39.2 °F 43% 30.11 in 10.0 mi SE 17.3 mph - N/A   Mostly Cloudy
12:55 AM 61.2 °F - 39.6 °F 45% 30.10 in 10.0 mi SE 16.1 mph - N/A   Overcast
1:15 AM 61.2 °F - 40.3 °F 46% 30.10 in 10.0 mi SSE 16.1 mph - N/A   Overcast
1:35 AM 61.7 °F - 40.6 °F 46% 30.09 in 10.0 mi SSE 15.0 mph - N/A   Overcast
1:55 AM 62.6 °F - 41.0 °F 45% 30.09 in 10.0 mi SSE 17.3 mph 25.3 mph N/A   Overcast
2:15 AM 63.0 °F - 41.0 °F 45% 30.08 in 10.0 mi SSE 17.3 mph 24.2 mph N/A   Overcast
2:35 AM 62.8 °F - 41.2 °F 45% 30.07 in 10.0 mi SSE 17.3 mph - N/A   Overcast
2:55 AM 62.6 °F - 41.4 °F 46% 30.06 in 10.0 mi SSE 15.0 mph - N/A   Overcast
3:15 AM 62.2 °F - 41.9 °F 47% 30.06 in 10.0 mi SSE 11.5 mph - N/A Thunderstorm Overcast
3:35 AM 62.1 °F - 42.4 °F 49% 30.05 in 10.0 mi SSE 23.0 mph 27.6 mph N/A Thunderstorm Thunderstorm
3:55 AM 61.9 °F - 42.3 °F 49% 30.08 in 10.0 mi South 15.0 mph 21.9 mph N/A   Mostly Cloudy
4:15 AM 61.3 °F - 43.0 °F 51% 30.03 in 10.0 mi SSE 20.7 mph 29.9 mph N/A Rain Light Rain
4:35 AM 61.7 °F - 43.5 °F 51% 30.05 in 10.0 mi SSE 15.0 mph - N/A   Overcast
4:55 AM 61.0 °F - 43.7 °F 53% 30.05 in 10.0 mi SSE 12.7 mph - N/A   Overcast
5:15 AM 61.5 °F - 43.9 °F 52% 30.06 in 10.0 mi SSE 11.5 mph - N/A   Overcast
5:35 AM 61.3 °F - 44.2 °F 53% 30.05 in 10.0 mi SSE 13.8 mph - N/A   Overcast
5:55 AM 62.6 °F - 45.1 °F 53% 30.06 in 10.0 mi SSE 11.5 mph - N/A   Overcast
6:15 AM 62.6 °F - 45.1 °F 53% 30.06 in 10.0 mi South 15.0 mph - N/A   Overcast
6:35 AM 61.9 °F - 45.1 °F 54% 30.06 in 10.0 mi SE 13.8 mph - N/A   Overcast
6:55 AM 60.1 °F - 45.9 °F 59% 30.06 in 10.0 mi SSE 13.8 mph - N/A Thunderstorm Overcast
7:15 AM 60.4 °F - 45.9 °F 59% 30.06 in 10.0 mi SE 11.5 mph - N/A   Overcast
7:35 AM 60.1 °F - 46.4 °F 61% 30.07 in 10.0 mi SE 8.1 mph - N/A   Overcast
7:55 AM 60.4 °F - 46.6 °F 60% 30.09 in 10.0 mi SE 8.1 mph - N/A   Overcast
8:15 AM 60.8 °F - 47.3 °F 61% 30.09 in 10.0 mi SE 10.4 mph - N/A   Overcast
8:35 AM 60.8 °F - 48.2 °F 63% 30.10 in 10.0 mi ESE 8.1 mph - N/A   Mostly Cloudy
8:55 AM 60.1 °F - 48.6 °F 66% 30.10 in 10.0 mi ESE 10.4 mph - N/A   Mostly Cloudy
9:15 AM 60.4 °F - 49.3 °F 67% 30.10 in 10.0 mi SSE 10.4 mph - N/A   Mostly Cloudy
9:35 AM 60.6 °F - 49.3 °F 66% 30.10 in 10.0 mi SSE 12.7 mph 20.7 mph N/A   Overcast
9:55 AM 60.8 °F - 50.5 °F 69% 30.09 in 10.0 mi SSE 17.3 mph - N/A   Overcast
10:15 AM 60.8 °F - 50.9 °F 70% 30.09 in 10.0 mi SSE 19.6 mph - N/A   Overcast
10:35 AM 61.7 °F - 50.9 °F 68% 30.08 in 10.0 mi South 20.7 mph - N/A   Overcast
10:55 AM 63.1 °F - 51.3 °F 65% 30.08 in 10.0 mi SSE 19.6 mph 26.5 mph N/A   Mostly Cloudy
11:15 AM 64.0 °F - 50.9 °F 62% 30.07 in 10.0 mi SSE 21.9 mph - N/A   Scattered Clouds
11:35 AM 66.2 °F - 51.1 °F 58% 30.07 in 10.0 mi SSE 21.9 mph - N/A   Scattered Clouds
11:55 AM 66.2 °F - 51.6 °F 59% 30.06 in 10.0 mi SSE 23.0 mph 27.6 mph N/A   Scattered Clouds
12:15 PM 68.2 °F - 51.8 °F 56% 30.05 in 10.0 mi SSE 24.2 mph 28.8 mph N/A   Scattered Clouds
12:35 PM 69.4 °F - 52.5 °F 55% 30.04 in 10.0 mi South 21.9 mph 27.6 mph N/A   Clear
12:55 PM 70.7 °F - 52.7 °F 53% 30.04 in 10.0 mi South 20.7 mph 24.2 mph N/A   Scattered Clouds
1:15 PM 70.9 °F - 52.5 °F 52% 30.04 in 10.0 mi SSE 19.6 mph 25.3 mph N/A   Scattered Clouds
1:35 PM 73.4 °F - 52.0 °F 47% 30.02 in 10.0 mi South 18.4 mph 25.3 mph N/A   Scattered Clouds
1:55 PM 72.9 °F - 52.0 °F 48% 30.01 in 10.0 mi South 16.1 mph 21.9 mph N/A   Scattered Clouds
2:15 PM 76.3 °F - 52.2 °F 43% 30.00 in 10.0 mi SSW 16.1 mph 23.0 mph N/A   Clear
2:35 PM 77.2 °F - 52.7 °F 42% 29.99 in 10.0 mi South 16.1 mph 26.5 mph N/A   Clear
2:55 PM 78.4 °F - 52.7 °F 41% 29.98 in 10.0 mi South 17.3 mph 26.5 mph N/A   Clear
3:15 PM 78.8 °F - 52.7 °F 40% 29.97 in 10.0 mi South 17.3 mph 25.3 mph N/A   Clear
3:35 PM 80.1 °F 79.9 °F 53.2 °F 39% 29.97 in 10.0 mi SSE 16.1 mph 21.9 mph N/A   Clear
3:55 PM 80.6 °F 80.2 °F 53.1 °F 38% 29.95 in 10.0 mi South 15.0 mph 23.0 mph N/A   Clear
4:15 PM 81.5 °F - 52.9 °F 37% 29.94 in 10.0 mi SSE 18.4 mph 23.0 mph N/A   Clear
4:35 PM 82.4 °F 81.4 °F 53.8 °F 37% 29.92 in 10.0 mi SE 17.3 mph 24.2 mph N/A   Clear
4:55 PM 82.8 °F 81.7 °F 54.0 °F 37% 29.91 in 10.0 mi SSE 17.3 mph 21.9 mph N/A   Clear
5:15 PM 82.9 °F 81.9 °F 54.5 °F 37% 29.91 in 10.0 mi SSE 17.3 mph 24.2 mph N/A   Clear
5:35 PM 83.3 °F 82.2 °F 54.5 °F 37% 29.89 in 10.0 mi SE 21.9 mph 27.6 mph N/A   Clear
5:55 PM 79.7 °F - 59.0 °F 49% 29.90 in 10.0 mi ESE 20.7 mph 27.6 mph N/A   Clear
6:15 PM 77.9 °F - 59.2 °F 52% 29.91 in 10.0 mi ESE 19.6 mph 24.2 mph N/A   Clear
6:35 PM 77.4 °F - 59.4 °F 54% 29.91 in 10.0 mi ESE 16.1 mph 24.2 mph N/A   Clear
6:55 PM 77.5 °F - 59.5 °F 54% 29.89 in 10.0 mi ESE 24.2 mph 31.1 mph N/A   Clear
7:15 PM 75.7 °F - 60.1 °F 58% 29.88 in 10.0 mi ESE 21.9 mph - N/A   Clear
7:35 PM 75.4 °F - 60.1 °F 59% 29.88 in 10.0 mi ESE 18.4 mph - N/A   Clear
7:55 PM 74.3 °F - 59.9 °F 61% 29.88 in 10.0 mi ESE 21.9 mph - N/A   Clear
8:15 PM 72.7 °F - 60.3 °F 65% 29.89 in 10.0 mi ESE 17.3 mph - N/A   Clear
8:35 PM 71.1 °F - 60.3 °F 69% 29.91 in 10.0 mi East 10.4 mph - N/A   Clear
8:55 PM 70.9 °F - 60.8 °F 70% 29.94 in 10.0 mi North 10.4 mph 19.6 mph N/A   Clear
9:15 PM 70.9 °F - 60.3 °F 69% 29.97 in 10.0 mi North 15.0 mph - N/A   Clear
9:35 PM 68.0 °F - 57.6 °F 69% 29.99 in 10.0 mi North 24.2 mph - N/A   Clear
9:55 PM 65.5 °F - 55.0 °F 69% 30.00 in 10.0 mi NNE 19.6 mph 24.2 mph N/A   Clear
10:15 PM 63.7 °F - 54.7 °F 72% 30.01 in 10.0 mi NNE 17.3 mph - N/A   Clear
10:35 PM 62.1 °F - 52.7 °F 71% 30.03 in 10.0 mi NNW 12.7 mph - N/A   Clear
10:55 PM 60.3 °F - 52.3 °F 75% 30.04 in 10.0 mi NNW 19.6 mph 23.0 mph N/A   Clear
11:15 PM 59.9 °F - 53.2 °F 79% 30.05 in 10.0 mi North 18.4 mph - N/A   Clear
11:35 PM 59.4 °F - 53.6 °F 81% 30.04 in 10.0 mi North 15.0 mph - N/A   Clear
11:55 PM 58.6 °F - 53.1 °F 82% 30.06 in 10.0 mi NNW 16.1 mph - N/A   Clear